カタログに戻る

STARLINK-37799

運用中通信SSO
NORAD 69317·PAYLOAD·🇺🇸 United States

打ち上げ May 30, 2026 から Vandenberg Space Force Base

Loading…

次のパス (今後24時間)

TLE

最新Source: CelesTrak SupGP

元期: Sep 14, 2026, 23:30 UTC

1 69317C 26119X   26257.97965278  .00049369  00000+0  15326-2 0  2576
2 69317  97.2835 282.8608 0001351  86.9939 205.0123 15.33411769    14

AllMySatでSTARLINK-37799をリアルタイム追跡

Download on the App Store